Location: Bathurst
(33.4193°S, 149.5775°E)
Time: 21:34:26
(UTC+11:00)

ISS - Pass Details

Date: 30 January 2021
Orbit: 417 x 422 km, 51.6° (Epoch: 28 February)

Event Time Altitude Azimuth Distance (km) Brightness Sun altitude
Exits shadow 03:10:36 12° 137° (SE) 1,427 -0.3 -31.9°
Drops below altitude 10° 03:10:50 10° 136° (SE) 1,521 -0.1 -31.8°
Sets 03:12:57 0° 135° (SE) 2,391 1.2 -31.6°
